EW1979 Weather Reports


Display with metric or nautical units.
time (UTC)temp
F
wind
direction
speed
MPH
gust
MPH
rain 1hr
in
rain 24hr
in
rain mn
in
humidity
%
barometer
mb
20260901011502 85 122 1.0 0.0 0.00 0.00 0.00 52 1009.7
20260901010003 86 107 1.0 0.0 0.00 0.00 0.00 51 1009.8
20260901004608 87 130 1.0 0.0 0.00 0.00 0.00 50 1009.6
20260901003007 89 91 2.0 0.0 0.00 0.00 0.00 49 1009.6
20260901001511 90 59 2.0 0.0 0.00 0.00 0.00 47 1009.3
20260901000002 91 137 2.0 0.0 0.00 0.00 0.00 47 1009.2
20260831233105 92 150 2.0 0.0 0.00 0.00 0.00 44 1008.9
20260831231602 92 123 4.0 0.0 0.00 0.00 0.00 43 1008.9
20260831230005 93 141 2.0 0.0 0.00 0.00 0.00 41 1008.9
20260831224506 93 165 3.0 0.0 0.00 0.00 0.00 42 1008.9
20260831221505 94 84 3.0 0.0 0.00 0.00 0.00 40 1009.1
20260831220008 94 149 2.0 0.0 0.00 0.00 0.00 42 1009.4
20260831214503 93 111 3.0 0.0 0.00 0.00 0.00 43 1009.7
20260831213103 94 138 3.0 0.0 0.00 0.00 0.00 42 1009.7
20260831211506 93 56 3.0 0.0 0.00 0.00 0.00 46 1009.8
20260831204504 93 112 3.0 0.0 0.00 0.00 0.00 44 1010.4
20260831201604 91 110 3.0 0.0 0.00 0.00 0.00 46 1011.0
20260831194508 93 86 5.0 0.0 0.00 0.00 0.00 44 1011.4
20260831193107 93 168 5.0 0.0 0.00 0.00 0.00 45 1011.4
20260831190003 91 159 4.0 0.0 0.00 0.00 0.00 48 1011.5
20260831184511 91 164 5.0 0.0 0.00 0.00 0.00 48 1011.9
20260831181503 89 152 6.0 0.0 0.00 0.00 0.00 50 1012.4
20260831180002 90 119 5.0 0.0 0.00 0.00 0.00 51 1012.3
20260831174519 90 123 5.0 0.0 0.00 0.00 0.00 53 1012.3
20260831173004 87 164 5.0 0.0 0.00 0.00 0.00 55 1012.5
20260831171507 88 174 5.0 0.0 0.00 0.00 0.00 54 1012.5
20260831170104 87 183 5.0 0.0 0.00 0.00 0.00 56 1012.6
20260831164506 86 175 6.0 0.0 0.00 0.00 0.00 58 1012.7
20260831163106 87 181 5.0 0.0 0.00 0.00 0.00 59 1012.8
20260831161504 85 154 6.0 0.0 0.00 0.00 0.00 61 1012.8
20260831160008 85 181 5.0 0.0 0.00 0.00 0.00 61 1012.7
20260831154504 84 173 7.0 0.0 0.00 0.00 0.00 62 1012.6
20260831153009 83 178 8.0 0.0 0.00 0.00 0.00 64 1012.6
20260831151507 82 151 7.0 0.0 0.00 0.00 0.00 66 1012.5
20260831150035 81 164 8.0 0.0 0.00 0.00 0.00 68 1012.4
20260831144504 81 164 7.0 0.0 0.00 0.00 0.00 70 1012.5
20260831143003 80 162 6.0 0.0 0.00 0.00 0.00 73 1012.5
20260831141503 78 197 6.0 0.0 0.00 0.00 0.00 76 1012.3
20260831140138 78 191 6.0 0.0 0.00 0.00 0.00 81 1012.3
20260831134504 76 182 5.0 0.0 0.00 0.00 0.00 84 1012.4
20260831133118 75 159 4.0 0.0 0.00 0.00 0.00 87 1012.5
20260831131604 75 177 5.0 0.0 0.00 0.00 0.00 89 1012.3
20260831130003 74 175 4.0 0.0 0.00 0.00 0.00 90 1012.1
20260831123036 73 165 4.0 0.0 0.00 0.00 0.00 90 1012.0
20260831121602 73 155 6.0 0.0 0.00 0.00 0.00 90 1011.9
20260831120009 73 205 4.0 0.0 0.00 0.00 0.00 90 1011.4
20260831114516 73 180 3.0 0.0 0.00 0.00 0.00 90 1011.4
20260831113104 73 180 3.0 0.0 0.00 0.00 0.00 89 1011.4
20260831111504 74 179 4.0 0.0 0.00 0.00 0.00 89 1011.4
20260831101601 74 192 7.0 0.0 0.00 0.00 0.00 87 1011.5
20260831100105 74 189 7.0 0.0 0.00 0.00 0.00 86 1011.4
20260831091605 74 184 7.0 0.0 0.00 0.00 0.00 87 1011.3
20260831084509 74 171 7.0 0.0 0.00 0.00 0.00 87 1011.2
20260831083003 74 189 7.0 0.0 0.00 0.00 0.00 87 1011.4
20260831081605 74 171 5.0 0.0 0.00 0.00 0.00 86 1011.5
20260831080104 74 175 5.0 0.0 0.00 0.00 0.00 85 1011.5
20260831074504 74 179 6.0 0.0 0.00 0.00 0.00 84 1011.5
20260831071512 75 173 6.0 0.0 0.00 0.00 0.00 82 1011.5
20260831064603 76 171 6.0 0.0 0.00 0.00 0.00 79 1011.5
20260831063103 76 161 4.0 0.0 0.00 0.00 0.00 78 1011.6
20260831061505 77 174 6.0 0.0 0.00 0.00 0.00 77 1011.6
20260831060104 77 155 6.0 0.0 0.00 0.00 0.00 75 1011.3
20260831054603 78 115 6.0 0.0 0.00 0.00 0.00 71 1011.4
20260831053110 78 101 6.0 0.0 0.00 0.00 0.00 68 1011.1
20260831050006 79 134 6.0 0.0 0.00 0.00 0.00 67 1011.1
20260831043001 80 143 4.0 0.0 0.00 0.00 0.00 65 1010.9
20260831041508 81 164 5.0 0.0 0.00 0.00 0.00 65 1010.7
20260831040002 82 159 6.0 0.0 0.00 0.00 0.00 65 1010.8
20260831034605 82 140 6.0 0.0 0.00 0.00 0.00 65 1010.7
20260831033134 82 155 5.0 0.0 0.00 0.00 0.00 65 1010.7
20260831030002 83 141 3.0 0.0 0.00 0.00 0.00 63 1010.6
20260831024627 82 153 2.0 0.0 0.00 0.00 0.00 61 1010.5